www.pogodaiklimat.ru

Погода и климат >> Архив погоды >> Иран >> Khark


ПОГОДА в Khark

  • Прогноз погоды в Khark
  • Монитор погоды в Khark
  • Климат города

АРХИВ ПОГОДЫ в Khark

Время (UTC), дата Ветер
(напр.,м/с)
 
Видим.   Явления Облачность Т
(С)
Тd
(С)
f
(%)
Тe
(С)
Тes
(С)
Комфортность P
(гПа)
Po
(гПа)
Тmin
(С)
Tmax
(С)
R
(мм)
R24
(мм)
S
(см)
03 13.07 СЗ 2 10 км ясно +33.2 +28.7 77 +56 +57 опасность
перегрева
992.8 992.3 +31.9
06 13.07 СЗ 4 10 км ясно +34.1 +29.7 78 +60 +70 опасность
перегрева
993.6 993.1
09 13.07 СЗ 5 10 км ясно +35.6 +27.6 63 +55 +66 опасность
перегрева
993.5 993.0
12 13.07 СЗ 6 10 км ясно +39.2 +22.7 39 +48 +52 опасность
перегрева
992.4 991.9
15 13.07 СЗ 6 10 км ясно +41.0 +18.6 27 +44 +45 опасность
перегрева
991.6 991.1 +41.5
03 14.07 СЗ 6 10 км ясно +33.7 +25.8 63 +49 +49 опасность
перегрева
993.9 993.4 +33.6
06 14.07 СЗ 6 10 км ясно +35.5 +25.8 57 +50 +56 опасность
перегрева
994.8 994.3
09 14.07 СЗ 7 10 км ясно +37.7 +25.0 49 +51 +57 опасность
перегрева
994.8 994.3
12 14.07 СЗ 8 10 км ясно +38.0 +24.8 47 +51 +53 опасность
перегрева
993.5 993.0
15 14.07 СЗ 7 10 км ясно +37.6 +24.5 47 +50 +50 опасность
перегрева
993.1 992.6 +39.2
03 15.07 СЗ 2 10 км ясно +32.7 +28.2 77 +54 +55 опасность
перегрева
995.2 994.7 +32.2
06 15.07 СЗ 2 10 км ясно +35.3 +27.6 65 +55 +69 опасность
перегрева
995.8 995.3
09 15.07 СЗ 5 10 км ясно +39.8 +21.8 36 +47 +59 опасность
перегрева
995.7 995.2
12 15.07 СЗ 6 10 км ясно +38.8 +24.3 44 +50 +55 опасность
перегрева
994.8 994.3
15 15.07 СЗ 5 10 км ясно +38.3 +19.1 33 +43 +43 опасность
перегрева
994.5 994.0 +40.7
03 16.07 СЗ 2 10 км ясно +31.9 +27.7 79 +52 +53 опасность
перегрева
994.8 994.3 +30.1
06 16.07 СЗ 2 10 км ясно +34.4 +29.6 76 +60 +74 опасность
перегрева
995.5 995.0
09 16.07 З 4 10 км ясно +40.6 +22.2 35 +48 +63 опасность
перегрева
995.1 994.6
12 16.07 З 6 10 км ясно +39.3 +23.1 40 +49 +53 опасность
перегрева
994.0 993.5
15 16.07 З 5 10 км ясно +36.4 +25.2 53 +50 +50 опасность
перегрева
993.6 993.1 +40.6
03 17.07 СЗ 6 10 км ясно +33.3 +26.2 66 +49 +50 опасность
перегрева
994.4 993.9 +32.7
06 17.07 СЗ 6 10 км ясно +35.1 +27.1 63 +53 +59 опасность
перегрева
995.0 994.5
09 17.07 СЗ 8 10 км ясно +36.2 +25.0 53 +50 +54 опасность
перегрева
995.0 994.5
12 17.07 З 5 10 км ясно +38.1 +24.6 46 +50 +56 опасность
перегрева
994.1 993.6
15 17.07 З 5 10 км ясно +36.5 +24.7 51 +49 +49 опасность
перегрева
993.5 993.0 +39.0
03 18.07 СЗ 5 10 км ясно +32.8 +26.3 69 +49 +50 опасность
перегрева
994.9 994.4 +32.6
06 18.07 СЗ 6 10 км ясно +34.4 +25.6 60 +49 +55 опасность
перегрева
996.1 995.6
09 18.07 З 6 10 км ясно +35.3 +24.8 55 +49 +57 опасность
перегрева
996.0 995.5
12 18.07 З 5 10 км ясно +37.0 +22.5 43 +46 +51 опасность
перегрева
995.6 995.1
15 18.07 ЮЗ 5 10 км ясно +34.7 +25.4 59 +49 +49 опасность
перегрева
995.4 994.9 +37.6
03 19.07 Ю 2 8000 м дымка ясно +30.7 +28.4 88 +52 +53 опасность
перегрева
997.1 996.6 +29.3
06 19.07 ЮВ 3 8000 м мгла ясно +35.0 +27.5 65 +54 +66 опасность
перегрева
997.6 997.1
09 19.07 СВ 2 10 км ясно +35.2 +29.4 72 +60 +82 опасность
перегрева
997.3 996.8
12 19.07 З 4 10 км ясно +37.1 +26.6 55 +54 +61 опасность
перегрева
996.5 996.0

 

Местоположение метеостанции Khark (Иран): широта 29.26 долгота 50.32 высота над уровнем моря 3 м.

В архиве по умолчанию представлена погода в Khark за последнюю неделю. Архивные данные за месяц целиком и за предыдущие месяцы, начиная с января 2011 года, Вы можете получить, выбрав интересующий диапазон дат из раскрывающегося списка и нажав кнопку "Ввод!".


*Определитесь, кто Вы:
робот инопланетянин человек

Внимание! Время в таблицах - всемирное. Для получения местного времени необходимо прибавить поправку, которая в Khark равна 3.5 ч.

Смотрите также архив погоды в соседних городах и на ближайших метеорологических станциях:

Погода в Bushehr Airport (Иран) (59 км)
Погода в Bushehr (Иран) (62 км)
Погода в Gach Saran (Иран) (137 км)
Погода в Nuwasib (Кувейт) (175 км)
Погода в Umm-Al-Maradim (Кувейт) (175 км)
Погода в Omidieh (Иран) (179 км)
Погода в Fao (Ирак) (193 км)
Погода в Bubiyan (Кувейт) (196 км)
Погода в Yasuj (Иран) (198 км)
Погода в Failaka Island (Кувейт) (199 км)

Пояснения к столбцам:

Ветер - указаны скорость ветра в м/с - средняя за 10 мин, порывы в срок и между сроками (в фигурных скобках) и направление, откуда дует ветер: С - северный, СВ - северо-восточный, В - восточный, ЮВ - юго-восточный, Ю - южный, ЮЗ - юго-западный, З - западный, СЗ - северо-западный.
Видимость - горизонтальная дальность видимости в метрах или километрах. При видимости от 1 до 10 км при отсутствии осадков обычно наблюдается дымка, при ухудшении видимости до 1 км и менее - туман. В сухую погоду видимость может ухудшаться дымом, пылью или мглою.
Явления - указаны атмосферные явления, наблюдавшиеся в срок или в последний час перед сроком; фигурными скобками обозначены явления, наблюдавшиеся между сроками (за 1-3 часа до срока); квадратными скобками обозначены град или гололедные отложения с указанием их диаметра в мм.
Облачность - указаны через наклонную черту общая и нижняя облачность в баллах и высота нижней границы облаков в метрах; квадратными скобками обозначены формы облаков: Ci - перистые, Cs - перисто-слоистые, Cc - перисто-кучевые, Ac - высококучевые, As - высокослоистые, Sc - слоисто-кучевые, Ns - слоисто-дождевые, Cu - кучевые, Cb - кучево-дождевые. Подробнее классификацию облаков см. в Атласе облаков (PDF).
T - Температура воздуха - температура, измеренная на высоте 2 м над землей.
Td - Температура точки росы - температура, при понижении до которой содержащийся в воздухе водяной пар достигнет насыщения.
f - Относительная влажность воздуха - влажноcть воздуха, измеренная на высоте 2 м над землей.
Te - Эффективная температура - температура, которую ощущает одетый по сезону человек в тени. Характеристика душности погоды. При расчете учитывается влияние влажности воздуха и скорости ветра на теплоощущения человека.
Tes - Эффективная температура на солнце - температура, которую ощущает человек, с поправкой на солнечный нагрев. Характеристика знойности погоды. Зависит от высоты солнца над горизонтом, облачности и скорости ветра. Ночью, в пасмурную погоду, а также при ветре 12 м/с и более поправка равна нулю.
P - Атмосферное давление - приведенное к уровню моря атмосферное давление.
Po - Атмосферное давление - измеренное на уровне метеостанции атмосферное давление.
Tmin - Минимальная температура - минимум температуры воздуха на высоте 2 м над землей.
Tmax - Максимальная температура - максимум температуры воздуха на высоте 2 м над землей.
R - Количество осадков - Количество выпавших осадков за период времени, мм. При наведении курсора мыши на число - период времени, за который выпало указанное количество осадков.
R24 - Количество осадков - Количество выпавших осадков за 24 часа, мм.
S - Снежный покров - Высота снежного покрова, см. При наведении курсора мыши на число - состояние снежного покрова и степень покрытия местности в баллах.